EW7186 Weather Reports


time (UTC)temp
C
wind
direction
speed
KPH
gust
KPH
rain 1hr
cm
rain 24hr
cm
rain mn
cm
humidity
%
barometer
mb
20260505124554 18 0 0.0 6.4 0.00 0.00 0.00 74 1016.8
20260505123050 17 0 0.0 6.4 0.00 0.00 0.00 76 1016.8
20260505121554 17 0 0.0 6.4 0.00 0.00 0.00 77 1016.6
20260505120108 16 0 0.0 4.8 0.00 0.00 0.00 78 1016.5
20260505114552 16 0 0.0 0.0 0.00 0.00 0.00 79 1016.4
20260505113050 15 0 0.0 1.6 0.00 0.00 0.00 81 1016.5
20260505111553 14 0 0.0 0.0 0.00 0.00 0.00 83 1016.4
20260505101555 13 0 0.0 0.0 0.00 0.00 0.00 84 1015.9
20260505100053 13 0 0.0 0.0 0.00 0.00 0.00 83 1015.8
20260505094551 13 0 0.0 0.0 0.00 0.00 0.00 82 1015.7
20260505093055 13 0 0.0 0.0 0.00 0.00 0.00 82 1015.7
20260505091553 13 0 0.0 0.0 0.00 0.00 0.00 81 1015.6
20260505090053 13 0 0.0 0.0 0.00 0.00 0.00 80 1015.6
20260505084550 14 0 0.0 0.0 0.00 0.00 0.00 80 1015.6
20260505083050 14 0 0.0 0.0 0.00 0.00 0.00 79 1015.5
20260505081551 14 0 0.0 3.2 0.00 0.00 0.00 78 1015.6
20260505080053 15 0 1.6 4.8 0.00 0.00 0.00 77 1015.4
20260505074558 15 0 0.0 4.8 0.00 0.00 0.00 77 1015.3
20260505073103 15 0 0.0 4.8 0.00 0.00 0.00 76 1015.2
20260505071558 15 0 0.0 4.8 0.00 0.00 0.00 75 1015.3
20260505070049 15 259 0.0 3.2 0.00 0.00 0.00 74 1015.2
20260505064552 15 0 0.0 6.4 0.00 0.00 0.00 74 1015.3
20260505063052 15 0 0.0 4.8 0.00 0.00 0.00 73 1015.4
20260505061555 15 0 0.0 3.2 0.00 0.00 0.00 72 1015.4
20260505060056 16 0 0.0 4.8 0.00 0.00 0.00 71 1015.6
20260505054624 16 0 0.0 4.8 0.00 0.00 0.00 70 1015.6
20260505053102 16 0 0.0 3.2 0.00 0.00 0.00 68 1015.8
20260505051549 16 213 3.2 11.3 0.00 0.00 0.00 67 1015.8
20260505041559 17 211 0.0 3.2 0.00 0.00 0.00 64 1015.9
20260505040050 17 205 0.0 3.2 0.00 0.00 0.00 63 1015.9
20260505034547 17 0 0.0 4.8 0.00 0.00 0.00 63 1015.9
20260505033051 18 0 0.0 4.8 0.00 0.00 0.00 62 1016.0
20260505031606 18 0 0.0 6.4 0.00 0.00 0.00 62 1016.0
20260505030050 18 0 0.0 4.8 0.00 0.00 0.00 61 1015.9
20260505024551 18 0 0.0 4.8 0.00 0.00 0.00 61 1016.0
20260505023106 17 0 0.0 0.0 0.00 0.00 0.00 61 1015.9
20260505021552 17 0 0.0 3.2 0.00 0.00 0.00 62 1015.8
20260505020054 18 0 0.0 0.0 0.00 0.00 0.00 58 1015.5
20260505014604 18 0 0.0 0.0 0.00 0.00 0.00 55 1015.4
20260505013105 19 0 0.0 0.0 0.00 0.00 0.00 51 1015.2
20260505011552 19 0 0.0 0.0 0.00 0.00 0.00 49 1015.0
20260505010053 20 0 0.0 0.0 0.00 0.00 0.00 48 1014.9
20260505004558 20 0 0.0 0.0 0.00 0.00 0.00 47 1014.7
20260505003054 21 0 0.0 0.0 0.00 0.00 0.00 45 1014.6
20260505001555 21 0 0.0 0.0 0.00 0.00 0.00 44 1014.5
20260505000107 22 0 0.0 0.0 0.00 0.00 0.00 42 1014.2
20260504234552 22 0 0.0 3.2 0.00 0.00 0.00 40 1014.1
20260504233054 23 0 0.0 6.4 0.00 0.00 0.00 39 1014.0
20260504231554 23 0 0.0 0.0 0.00 0.00 0.00 37 1013.9
20260504230104 24 0 0.0 8.0 0.00 0.00 0.00 35 1014.1
20260504224552 24 0 0.0 6.4 0.00 0.00 0.00 35 1014.2
20260504223051 25 230 0.0 4.8 0.00 0.00 0.00 34 1014.3
20260504221600 25 0 1.6 6.4 0.00 0.00 0.00 32 1014.3
20260504220055 25 220 0.0 6.4 0.00 0.00 0.00 32 1014.2
20260504214548 25 248 0.0 8.0 0.00 0.00 0.00 31 1014.2
20260504213053 25 217 1.6 6.4 0.00 0.00 0.00 29 1014.1
20260504211553 25 221 1.6 9.7 0.00 0.00 0.00 27 1014.1
20260504210054 25 0 0.0 6.4 0.00 0.00 0.00 30 1014.1
20260504204549 25 0 0.0 8.0 0.00 0.00 0.00 32 1014.0
20260504203101 25 0 0.0 6.4 0.00 0.00 0.00 29 1014.2
20260504201552 25 0 0.0 6.4 0.00 0.00 0.00 29 1014.3
20260504200054 25 0 0.0 0.0 0.00 0.00 0.00 31 1014.3
20260504194552 25 0 0.0 4.8 0.00 0.00 0.00 31 1014.6
20260504193055 25 0 0.0 9.7 0.00 0.00 0.00 29 1015.0
20260504191602 24 0 0.0 8.0 0.00 0.00 0.00 32 1015.3
20260504190112 23 0 0.0 6.4 0.00 0.00 0.00 32 1015.4
20260504184551 23 0 0.0 6.4 0.00 0.00 0.00 31 1015.6
20260504183105 23 0 0.0 3.2 0.00 0.00 0.00 31 1015.8
20260504181602 23 0 1.6 9.7 0.00 0.00 0.00 31 1016.1
20260504180059 23 0 0.0 8.0 0.00 0.00 0.00 34 1016.0
20260504174557 23 0 0.0 9.7 0.00 0.00 0.00 36 1016.2
20260504173057 23 0 1.6 8.0 0.00 0.00 0.00 32 1016.4
20260504171553 23 345 1.6 8.0 0.00 0.00 0.00 32 1016.5